Regional Weather Roundup
Issued by NWS

Home | Current Version | Previous Version | Graphics & Text | Print | Product List | Glossary On
Versions: 1 2 3 4 5 6 7 8 9 10 11 12 13 14 15 16 17 18 19 20 21 22 23 24 25 26 27 28 29 30 31 32 33 34 35 36 37 38 39 40 41 42 43 44 45 46 47 48 49 50
000
ASUS43 KMPX 222310
RWRMN
WEATHER ROUNDUP FOR MINNESOTA
NATIONAL WEATHER SERVICE TWIN CITIES/CHANHASSEN MN
600 PM CDT FRI JUL 22 2016


NOTE: "FAIR" INDICATES FEW OR NO CLOUDS BELOW 12,000 FEET WITH NO
SIGNIFICANT WEATHER AND/OR OBSTRUCTIONS TO VISIBILITY. N/A MEANS
CURRENT SKY AND/OR WEATHER CONDITIONS ARE NOT AVAILABLE.

MNZ060>063-068>070-230000-
   Twin Cities Metro

CITY           SKY/WX    TMP DP  RH WIND       PRES   REMARKS
TWIN CITIES    MOSUNNY   96  57  27 SE12      29.98S HX  95
ST PAUL        SUNNY     95  60  31 NE7       29.97F HX  95
CRYSTAL        SUNNY     95  56  26 N5        29.97S HX  93
BLAINE         SUNNY     93  57  29 NE5       29.99S HX  92
LAKEVILLE      SUNNY     88  63  42 E5        29.99S
EDEN PRAIRIE   SUNNY     95  53  24 SE9       29.98R HX  92
LAKEVILLE      SUNNY     88  63  42 E5        29.99S
SOUTH ST PAUL  SUNNY     93  55  27 E5        29.98S HX  91
LAKE ELMO      FAIR      91  64  40 CALM      30.00S HX  93
$$
MNZ001>005-007-008-013>017-022>024-027-028-230000-
   Northwest Minnesota

CITY           SKY/WX    TMP DP  RH WIND       PRES   REMARKS
BEMIDJI        CLOUDY    84  55  37 NW6       30.03F
HALLOCK        MOSUNNY   82  63  51 N6        29.99F
ROSEAU         SUNNY     81  64  57 W8        30.01F
WARROAD        SUNNY     82  63  51 W10       30.01S
THIEF RVR FALL MOSUNNY   82  58  43 N9        30.03F
CROOKSTON      MOSUNNY   82  64  54 N3        30.02F
FOSSTON        SUNNY     84  63  48 N6        30.04S
DETROIT LAKES  CLOUDY    86  68  54 N3        30.04F
MOORHEAD       CLOUDY    84  73  70 N6        29.99F HX  91
PARK RAPIDS    CLOUDY    88  67  49 W6        30.03R HX  91
MAHNOMEN       FAIR      83  66  56 NE7       30.01F
$$
MNZ006-009>011-018-025>026-230000-
   North Central Minnesota

CITY           SKY/WX    TMP DP  RH WIND       PRES   REMARKS
BAUDETTE       SUNNY     83  57  41 W10       30.00S
FLAG ISLAND    SUNNY     81  57  44 NW12      29.98S
INTL FALLS     SUNNY     82  57  42 W12       29.99S
WASKISH        SUNNY     81  61  50 W9        30.01S
BIG FORK       SUNNY     84  57  39 W6        30.01S
LONGVILLE      PTSUNNY   84  64  51 CALM      30.03R
GRAND RAPIDS   CLOUDY    86  58  38 NW9       30.03F
CRANE LAKE     SUNNY     82  46  28 W7G18     29.99S
ORR            SUNNY     84  52  32 NW7       29.97S
COOK           SUNNY     84  55  37 NW8       30.00S
WALKER         FAIR      84  63  48 N6        30.03S
$$
MNZ012-019>021-037-230000-
   Northeast Minnesota

CITY           SKY/WX    TMP DP  RH WIND       PRES   REMARKS
DULUTH         MOSUNNY   86  59  39 NW12      30.00S
ELY            SUNNY     82  48  30 NW10G17   29.98F
HIBBING        SUNNY     84  55  36 W12G18    30.00F
EVELETH        SUNNY     85  53  32 W9        30.01S
DULUTH HARBOR  SUNNY     90  61  37 NW15      29.95S
TWO HARBORS    SUNNY     90  64  43 CALM      29.95S HX  91
SILVER BAY     SUNNY     88  59  37 CALM      29.94S
GRAND MARAIS     N/A     87  45  23 W7        29.89F
G MARAIS ARPRT SUNNY     81  48  32 W10G17    29.98F
$$
MNZ029>031-032-039>041-046>048-054>057-064-230000-
   West Central Minnesota

CITY           SKY/WX    TMP DP  RH WIND       PRES   REMARKS
FERGUS FALLS   CLOUDY    86  70  58 S6        30.00F HX  90
WHEATON        CLOUDY    84  72  65 E8        29.98F
MORRIS         CLOUDY    84  72  65 SE8       29.98F
ALEXANDRIA     MOSUNNY   86  63  45 E5        30.03F
ELBOW LAKE     FAIR      84  70  61 SE5       30.01S
WADENA         CLOUDY    82  72  69 W3        30.04R
GLENWOOD       CLOUDY    84  70  61 E7        30.02F
APPLETON       CLOUDY    88  72  58 CALM      29.99F HX  94
BENSON         MOSUNNY   88  61  40 SE6       29.99F
ORTONVILLE     CLOUDY    84  68  58 S9        29.96F
MADISON        CLOUDY    84  70  61 CALM      30.01F
WILLMAR        FAIR      88  66  48 CALM      30.03S HX  90
$$
MNZ033>034-036-042>043-049>051-058-059-230000-
   Central Minnesota

CITY           SKY/WX    TMP DP  RH WIND       PRES   REMARKS
ST CLOUD       SUNNY     91  63  39 CALM      30.01S HX  92
SAUK CENTRE    FAIR      88  62  40 CALM      30.03F
PAYNESVILLE    SUNNY     86  63  45 NE3       30.04S
AITKIN         PTSUNNY   90  66  45 SW5       30.00S HX  92
PINE RIVER     MOSUNNY   86  70  58 N7        30.05R HX  90
BRAINERD       MOSUNNY   88  66  48 W7        30.02S HX  90
STAPLES        CLOUDY    84  64  51 NW5       30.03R
LONG PRAIRIE   FAIR      86  66  51 CALM      30.03F
LITTLE FALLS   CLOUDY    88  61  40 CALM      30.02F
LITCHFIELD     SUNNY     91  63  38 NE6       30.02S HX  92
BUFFALO        SUNNY     92  59  33 N6        30.01S HX  91
MAPLE LAKE     SUNNY     91  67  44 CALM      30.02S HX  94
HUTCHINSON     MOSUNNY   92  65  41 NE5       30.02S HX  94
$$
MNZ037-044-045-052-053-230000-
   East Central Minnesota

CITY           SKY/WX    TMP DP  RH WIND       PRES   REMARKS
PRINCETON      SUNNY     91  63  38 NW6       30.02R HX  92
MORA           SUNNY     88  64  45 NW5       30.03R
CAMBRIDGE      SUNNY     93  66  40 NW3       30.00R HX  96
RUSH CITY      SUNNY     88  66  48 NW3       30.01S HX  90
MOOSE LAKE     SUNNY     86  68  54 CALM      29.98S
HINCKLEY       FAIR      88  70  55 W5        30.00S HX  92
CLOQUET        SUNNY     88  54  31 NW8       30.00S
MCGREGOR       PTSUNNY   88  68  51 W3        30.01S HX  91
$$
MNZ071>073-080-081-089-090-097-098-230000-
   Southwest Minnesota

CITY           SKY/WX    TMP DP  RH WIND       PRES   REMARKS
MONTEVIDEO     MOSUNNY   86  72  62 E3        30.03F HX  92
GRANITE FALLS  MOSUNNY   90  69  50 NE5       30.03R HX  94
CANBY          MOSUNNY   87  72  61 NE5       30.02F HX  92
MARSHALL       SUNNY     87  73  62 NE13      30.01S HX  94
REDWOOD FALLS  SUNNY     90  65  43 NE7       30.00R HX  92
OLIVIA         SUNNY     90  64  43 NE6       30.02R HX  91
PIPESTONE      SUNNY     91  73  55 E7        30.02S HX 100
WINDOM         MOSUNNY   90  77  66 NE6       30.00R HX 102
WORTHINGTON    MOSUNNY   87  80  79 E10       30.02R HX 103
JACKSON        MOSUNNY   88  77  70 E5        30.00S HX 100
TRACY          PTSUNNY   90  79  70 NE9       30.01S HX 105
SLAYTON        MOSUNNY   88  77  70 NE7       30.03S HX 100
$$
MNZ065>067-074>077-082>085-091>093-230000-
   South Central Minnesota

CITY           SKY/WX    TMP DP  RH WIND       PRES   REMARKS
MANKATO        SUNNY     90  75  62 NE9       29.99R HX 100
NEW ULM        SUNNY     90  73  58 NE8       29.99S HX  98
ST JAMES       SUNNY     84  75  74 NE5       29.99R HX  92
FAIRMONT       CLOUDY    88  50  27 E6        29.98R
GLENCOE        SUNNY     91  70  49 N6        30.00R HX  97
FARIBAULT      MOSUNNY   90  73  58 N3        30.00R HX  98
OWATONNA       MOSUNNY   90  75  62 CALM      29.99S HX 100
WASECA         PTSUNNY   86  77  74 S3        30.00S HX  97
ALBERT LEA     MOSUNNY   88  79  74 SE5       29.99S HX 102
$$
MNZ078>079-086>088-094>096-230000-
   Southeast Minnesota

CITY           SKY/WX    TMP DP  RH WIND       PRES   REMARKS
ROCHESTER      SUNNY     89  78  70 S5        30.00S HX 103
RED WING       SUNNY     91  63  38 N3        29.97R HX  92
STANTON        SUNNY     90  68  48 NE5       29.98S HX  93
DODGE CENTER   SUNNY     88  77  70 CALM      30.01R HX 100
WINONA         SUNNY     90  72  55 NE5       29.97S HX  96
AUSTIN         CLOUDY    88  77  70 CALM      29.99S HX 100
PRESTON        MOSUNNY   85  76  75 S6        30.01S HX  94
$$
ABBREVIATIONS USED IN REMARKS
   TC - TEMPERATURES IN CELSIUS
  WCI - WIND CHILL INDEX
   HX - HEAT INDEX
  VSB - VISIBILITY
$$




USA.gov is the U.S. government's official web portal to all federal, state and local government web resources and services.